Location: Newark
(31.8769°N, 91.1411°W)
Time: 18:55:31
(UTC+00:00)

N. Korean satellite - Pass Details

Date: 24 January 2020
Orbit: 456 x 505 km, 97.2° (Epoch: 22 February)

Event Time Altitude Azimuth Distance (km) Brightness Sun altitude
Rises 12:28:53 0° 354° (N) 2,538 10.0 -7.5°
Reaches altitude 10° 12:31:15 10° 338° (NNW) 1,664 8.9 -7.1°
Maximum altitude 12:34:01 21° 287° (WNW) 1,124 7.8 -6.5°
Drops below altitude 10° 12:36:49 10° 236° (SW) 1,678 8.9 -5.9°
Sets 12:39:14 0° 220° (SW) 2,564 10.0 -5.4°
